STARLINK-3727, 52125

Orbit data source: Space-Track

STARLINK-3727, 52125 is a payload satellite owned by SpaceX/Seattle (US) in LEO that was launched on Sat, 19 Mar 2022 UTC via an FALCON 9 launch vehicle from the Air Force Eastern Test Range (AFETR). Payload-class satellites include a variety of spacecraft equipped with specific instruments for various scientific and technological missions. These include communications satellites like Starlink; space stations such as the ISS; scientific satellites like the Hubble; Earth observation satellites from companies like Planet Labs, Umbra, and HawkEye 360; GPS; miniature CubeSats for education and research; and military/defense satellites.

Loading next visibility...
Identifier
52125, 2022-029AP
Orbit
LEO
Country
Flag of USUS
Related business
Manufacturer
SpaceX/Seattle
Mission
Operational Commercial Communications
Bus & Motor
STARLINK, Unknown motor
Mass
297 kg wet, ~275 kg dry
Launch date (UTC)
2022-03-19 (4 years ago)
Launch vehicle
FALCON 9
Launch site
Air Force Eastern Test Range (AFETR)
Object type
Payload
Rocket body
Debris
Shape & HBR
Box + 1 Pan, 10.1 m
Radar Cross Section
13.562 m², Large (>1 m²)

Expand to show TLE details & history
Last TLE update: 2 days ago

TLE from 2 days ago
0 STARLINK-3727
1 52125U 22029AP  26171.16323612  .00000421  00000-0  44561-4 0  9992
2 52125  53.1597 328.9826 0001257  91.3826 268.7310 15.08835658236400
Epoch: 2026-06-20T03:55Z
TLE epoch observation values (Epoch: 2026-06-20T03:55:03.600Z)
Latitude
0.00001°
Longitude
1.8358°
Altitude
540.667 km
Speed
7.593 km/s
True Right ascension
21h 55m 55s
True Declination
0° 00' 00"
Sunlit
Object was in full shadow at epoch
Visualization orbit readout
Latitude
Unknown
Longitude
Unknown
Altitude
Unknown
Speed
Unknown
Apparent Right ascension
Unknown
Apparent Declination
Unknown
Sunlit
N/A
Visualization observer readout
Local Sidereal Time
21:30:38
Azimuth
Unknown
Elevation
Unknown
Doppler factor
Unknown
Orbital elements
Apogee altitude
540.88 km
Perigee altitude
539.141 km
Semi-major axis
6,918.148 km
Eccentricity
0.00013
Inclination
53.1597°
RAAN
328.9826°
Arg. of periapsis
91.3826°
True anomaly
268.7166°
Mean anomaly
268.731°
Eccentric anomaly
268.7238°
Mean motion
3.77188 °/min
Orbital period
95.44 mins
BSTAR
0.000044561
Loading maneuver chart data...
Computing Atmospheric mass density...
Loading historical data...
Loading historical data...
Loading historical data...
Loading historical data...
Loading historical data...
Loading historical data...
Loading historical data...

Documentation

Showing up to 5 results
|